Simultaneous Nadir Overpasses (SNOs) Predictions

Prediction of SNOs between GOES-17 and LANDSAT-8 Satellite Orbit:

Table of predicted SNOs for the next 14.0 days since TLE Epoch: 3/2/2024
Index Date Time (GOES-17) GOES-17 Lat,Lon LANDSAT-8 Lat,Lon Distance(km) Time Diff (sec)
1 03/02/2024 05:15:46 0.00,-104.69 -0.18,-105.54 96.44 80
2 03/04/2024 05:00:53 0.01,-104.69 0.47,-102.58 240.12 80
3 03/04/2024 17:22:07 -0.01,-104.69 0.63,-107.73 345.97 80
4 03/06/2024 17:09:53 -0.01,-104.69 0.02,-104.77 9.61 80
5 03/08/2024 17:00:19 -0.01,-104.68 -0.61,-101.80 327.30 80
6 03/09/2024 05:21:43 0.01,-104.68 -0.46,-107.00 262.94 80
7 03/11/2024 05:06:48 0.01,-104.68 0.13,-104.02 74.48 80
8 03/13/2024 04:54:34 0.01,-104.69 0.79,-101.06 411.95 80
9 03/13/2024 17:15:49 -0.01,-104.69 0.29,-106.22 174.30 80
10 03/15/2024 17:06:14 -0.02,-104.69 -0.33,-103.25 162.99 80
